When you browse on this site, cookies collect data to enhance your experience and personalize the content and advertising you see.
Visit our Privacy Policy to learn more. By continuing to use the site, you agree to this use of cookies and data.
  • In United Kingdom
  • List of Countries
  • For 7 days
  • Water Temperature
  • Satellite Maps
  • Weather Map
  • Weather Widgets
  • user-avatar
    Login

    Hourly Weather Den Helder

    Today, 25 June, Tuesday

    Time Temperature Precipitation Wind Pressure Humidity
    00:00 +21°C° 0 mm 3 mps 763 mmHg 91%
    01:00 +21°C° 0 mm 4 mps 763 mmHg 90%
    02:00 +21°C° 0 mm 5 mps 762 mmHg 89%
    03:00 +21°C° 0 mm 6 mps 762 mmHg 88%
    04:00 +21°C° 0.2 mm 6 mps 762 mmHg 89%
    05:00 +22°C° 0.2 mm 6 mps 762 mmHg 89%
    06:00 +23°C° 0 mm 4 mps 762 mmHg 90%
    07:00 +26°C° 0 mm 4 mps 762 mmHg 83%
    08:00 +27°C° 0 mm 4 mps 762 mmHg 76%
    09:00 +29°C° 0 mm 4 mps 762 mmHg 69%
    10:00 +30°C° 0 mm 4 mps 762 mmHg 66%
    11:00 +32°C° 0 mm 4 mps 762 mmHg 64%
    12:00 +33°C° 0 mm 3 mps 762 mmHg 61%
    13:00 +33°C° 0 mm 3 mps 762 mmHg 61%
    14:00 +33°C° 0 mm 3 mps 762 mmHg 61%
    15:00 +32°C° 0 mm 2 mps 762 mmHg 61%
    16:00 +31°C° 0 mm 3 mps 762 mmHg 65%
    17:00 +29°C° 0 mm 3 mps 762 mmHg 70%
    18:00 +28°C° 0 mm 3 mps 762 mmHg 74%
    19:00 +26°C° 0 mm 3 mps 763 mmHg 79%
    20:00 +24°C° 0 mm 3 mps 763 mmHg 85%
    21:00 +21°C° 0 mm 4 mps 763 mmHg 90%
    22:00 +20°C° 0 mm 4 mps 764 mmHg 91%
    23:00 +19°C° 0 mm 5 mps 764 mmHg 92%

    Tomorrow, 26 June, Wednesday

    Time Temperature Precipitation Wind Pressure Humidity
    00:00 +19°C° 0 mm 5 mps 765 mmHg 93%
    01:00 +17°C° 0 mm 6 mps 765 mmHg 91%
    02:00 +17°C° 0 mm 6 mps 765 mmHg 89%
    03:00 +16°C° 0 mm 7 mps 765 mmHg 87%
    04:00 +17°C° 0 mm 7 mps 766 mmHg 87%
    05:00 +17°C° 0 mm 7 mps 766 mmHg 87%
    06:00 +17°C° 0 mm 7 mps 767 mmHg 86%
    07:00 +18°C° 0 mm 7 mps 767 mmHg 85%
    08:00 +18°C° 0 mm 7 mps 768 mmHg 84%
    09:00 +20°C° 0 mm 7 mps 768 mmHg 83%
    10:00 +18°C° 0 mm 7 mps 769 mmHg 84%
    11:00 +18°C° 0 mm 7 mps 769 mmHg 84%
    12:00 +19°C° 0 mm 6 mps 770 mmHg 84%
    13:00 +17°C° 0 mm 7 mps 770 mmHg 84%
    14:00 +17°C° 0 mm 7 mps 770 mmHg 83%
    15:00 +16°C° 0 mm 7 mps 770 mmHg 83%
    16:00 +16°C° 0 mm 7 mps 770 mmHg 83%
    17:00 +16°C° 0 mm 7 mps 770 mmHg 83%
    18:00 +15°C° 0 mm 7 mps 770 mmHg 83%
    19:00 +15°C° 0 mm 7 mps 770 mmHg 82%
    20:00 +15°C° 0 mm 7 mps 771 mmHg 81%
    21:00 +15°C° 0 mm 7 mps 771 mmHg 80%
    22:00 +14°C° 0 mm 7 mps 771 mmHg 80%
    23:00 +14°C° 0 mm 6 mps 771 mmHg 80%

    Day after tomorrow, 27 June, Thursday

    Time Temperature Precipitation Wind Pressure Humidity
    00:00 +14°C° 0 mm 6 mps 771 mmHg 81%
    01:00 +13°C° 0 mm 6 mps 771 mmHg 83%
    02:00 +11°C° 0 mm 6 mps 771 mmHg 85%
    03:00 +11°C° 0 mm 6 mps 771 mmHg 87%
    04:00 +13°C° 0 mm 6 mps 771 mmHg 83%
    05:00 +14°C° 0 mm 6 mps 771 mmHg 79%
    06:00 +14°C° 0 mm 6 mps 771 mmHg 75%
    07:00 +15°C° 0 mm 6 mps 772 mmHg 76%
    08:00 +15°C° 0 mm 6 mps 772 mmHg 77%
    09:00 +16°C° 0 mm 6 mps 772 mmHg 78%
    10:00 +16°C° 0 mm 6 mps 772 mmHg 77%
    11:00 +16°C° 0 mm 6 mps 772 mmHg 76%
    12:00 +16°C° 0 mm 6 mps 772 mmHg 75%
    13:00 +16°C° 0 mm 6 mps 772 mmHg 75%
    14:00 +16°C° 0 mm 6 mps 772 mmHg 74%
    15:00 +16°C° 0 mm 6 mps 771 mmHg 74%
    16:00 +16°C° 0 mm 6 mps 771 mmHg 76%
    17:00 +15°C° 0 mm 6 mps 771 mmHg 78%
    18:00 +15°C° 0 mm 6 mps 771 mmHg 80%
    19:00 +14°C° 0 mm 6 mps 771 mmHg 83%
    20:00 +13°C° 0 mm 6 mps 771 mmHg 86%
    21:00 +11°C° 0 mm 6 mps 771 mmHg 88%
    22:00 +11°C° 0 mm 6 mps 771 mmHg 88%
    23:00 +12°C° 0 mm 5 mps 771 mmHg 88%

    28 June, Friday

    Time Temperature Precipitation Wind Pressure Humidity
    00:00 +12°C° 0 mm 5 mps 771 mmHg 88%
    01:00 +12°C° 0 mm 5 mps 770 mmHg 87%
    02:00 +12°C° 0 mm 5 mps 770 mmHg 87%
    03:00 +12°C° 0 mm 5 mps 770 mmHg 86%
    04:00 +13°C° 0 mm 5 mps 770 mmHg 84%
    05:00 +14°C° 0 mm 5 mps 770 mmHg 82%
    06:00 +14°C° 0 mm 5 mps 770 mmHg 81%
    07:00 +15°C° 0 mm 5 mps 770 mmHg 77%
    08:00 +16°C° 0 mm 5 mps 770 mmHg 74%
    09:00 +17°C° 0 mm 5 mps 770 mmHg 71%
    10:00 +17°C° 0 mm 5 mps 770 mmHg 69%
    11:00 +19°C° 0 mm 5 mps 770 mmHg 68%
    12:00 +19°C° 0 mm 5 mps 770 mmHg 66%
    13:00 +19°C° 0 mm 5 mps 769 mmHg 68%
    14:00 +19°C° 0 mm 5 mps 769 mmHg 69%
    15:00 +19°C° 0 mm 5 mps 769 mmHg 71%
    16:00 +17°C° 0 mm 5 mps 768 mmHg 73%
    17:00 +16°C° 0 mm 5 mps 768 mmHg 75%
    18:00 +16°C° 0 mm 5 mps 768 mmHg 77%
    19:00 +15°C° 0 mm 5 mps 768 mmHg 83%
    20:00 +13°C° 0 mm 5 mps 768 mmHg 88%
    21:00 +12°C° 0 mm 4 mps 768 mmHg 93%
    22:00 +12°C° 0 mm 4 mps 768 mmHg 93%
    23:00 +12°C° 0 mm 4 mps 767 mmHg 93%

    29 June, Saturday

    Time Temperature Precipitation Wind Pressure Humidity
    00:00 +12°C° 0 mm 4 mps 767 mmHg 93%
    01:00 +11°C° 0 mm 4 mps 767 mmHg 94%
    02:00 +11°C° 0 mm 4 mps 766 mmHg 94%
    03:00 +11°C° 0 mm 3 mps 766 mmHg 94%
    04:00 +12°C° 0 mm 4 mps 766 mmHg 91%
    05:00 +13°C° 0 mm 4 mps 765 mmHg 88%
    06:00 +14°C° 0 mm 4 mps 765 mmHg 85%
    07:00 +17°C° 0 mm 3 mps 765 mmHg 79%
    08:00 +19°C° 0 mm 3 mps 765 mmHg 72%
    09:00 +21°C° 0 mm 3 mps 765 mmHg 66%
    10:00 +24°C° 0 mm 3 mps 764 mmHg 61%
    11:00 +25°C° 0 mm 3 mps 764 mmHg 57%
    12:00 +26°C° 0 mm 3 mps 763 mmHg 52%
    13:00 +27°C° 0 mm 3 mps 763 mmHg 53%
    14:00 +27°C° 0 mm 4 mps 762 mmHg 53%
    15:00 +27°C° 0 mm 4 mps 762 mmHg 53%
    16:00 +27°C° 0 mm 4 mps 761 mmHg 58%
    17:00 +26°C° 0 mm 4 mps 761 mmHg 62%
    18:00 +25°C° 0 mm 4 mps 760 mmHg 67%
    19:00 +23°C° 0 mm 4 mps 760 mmHg 68%
    20:00 +22°C° 0 mm 5 mps 760 mmHg 70%
    21:00 +21°C° 0 mm 5 mps 759 mmHg 72%
    22:00 +20°C° 0 mm 5 mps 759 mmHg 71%
    23:00 +20°C° 0 mm 5 mps 758 mmHg 70%

    30 June, Sunday

    Time Temperature Precipitation Wind Pressure Humidity
    00:00 +19°C° 0 mm 5 mps 758 mmHg 69%
    01:00 +19°C° 0 mm 5 mps 757 mmHg 72%
    02:00 +19°C° 0 mm 6 mps 757 mmHg 74%
    03:00 +19°C° 0 mm 6 mps 756 mmHg 77%
    04:00 +20°C° 0 mm 6 mps 756 mmHg 79%
    05:00 +20°C° 0 mm 7 mps 756 mmHg 80%
    06:00 +21°C° 0 mm 7 mps 756 mmHg 82%
    07:00 +21°C° 0 mm 7 mps 757 mmHg 81%
    08:00 +21°C° 0 mm 7 mps 757 mmHg 79%
    09:00 +21°C° 0 mm 6 mps 757 mmHg 78%
    10:00 +21°C° 0 mm 7 mps 758 mmHg 75%
    11:00 +21°C° 0 mm 7 mps 758 mmHg 73%
    12:00 +21°C° 0 mm 8 mps 759 mmHg 70%
    13:00 +20°C° 0 mm 7 mps 759 mmHg 71%
    14:00 +20°C° 0 mm 7 mps 759 mmHg 71%
    15:00 +20°C° 0 mm 6 mps 760 mmHg 71%
    16:00 +20°C° 0 mm 6 mps 760 mmHg 74%
    17:00 +20°C° 0 mm 6 mps 760 mmHg 76%
    18:00 +19°C° 0 mm 5 mps 760 mmHg 79%
    19:00 +19°C° 0 mm 6 mps 760 mmHg 80%
    20:00 +17°C° 0 mm 6 mps 760 mmHg 82%
    21:00 +17°C° 0 mm 6 mps 760 mmHg 83%
    22:00 +17°C° 0.1 mm 7 mps 760 mmHg 85%
    23:00 +16°C° 0.1 mm 7 mps 760 mmHg 88%
    Show more